When you browse on this site, cookies collect data to enhance your experience and personalize the content and advertising you see.
Visit our Privacy Policy to learn more. By continuing to use the site, you agree to this use of cookies and data.
  • In Lithuania
  • List of Countries
  • For 7 days
  • Water Temperature
  • Satellite Maps
  • Weather Map
  • Weather Widgets
  • user-avatar
    Login

    Hourly Weather Booué

    Today, 17 November, Saturday

    Time Temperature Precipitation Wind Pressure Humidity
    00:00 +23°C° 1.6 mm 0 mps 735 mmHg 95%
    01:00 +22°C° 0 mm 0 mps 735 mmHg 95%
    02:00 +22°C° 0.2 mm 0 mps 735 mmHg 96%
    03:00 +22°C° 0.2 mm 0 mps 735 mmHg 96%
    04:00 +22°C° 0.2 mm 0 mps 734 mmHg 97%
    05:00 +22°C° 0 mm 0 mps 735 mmHg 96%
    06:00 +22°C° 0 mm 0 mps 735 mmHg 95%
    07:00 +23°C° 0 mm 0 mps 735 mmHg 94%
    08:00 +26°C° 0 mm 0 mps 735 mmHg 82%
    09:00 +28°C° 0 mm 0 mps 735 mmHg 69%
    10:00 +31°C° 0 mm 0 mps 735 mmHg 57%
    11:00 +32°C° 0 mm 0 mps 735 mmHg 52%
    12:00 +34°C° 0 mm 0 mps 734 mmHg 47%
    13:00 +37°C° 0 mm 1 mps 733 mmHg 42%
    14:00 +36°C° 0 mm 1 mps 733 mmHg 47%
    15:00 +33°C° 0 mm 0 mps 732 mmHg 51%
    16:00 +32°C° 0 mm 0 mps 732 mmHg 55%
    17:00 +30°C° 0.1 mm 0 mps 732 mmHg 60%
    18:00 +28°C° 0.1 mm 0 mps 733 mmHg 65%
    19:00 +29°C° 0.1 mm 1 mps 733 mmHg 71%
    20:00 +28°C° 0.4 mm 1 mps 734 mmHg 74%
    21:00 +28°C° 0.4 mm 1 mps 734 mmHg 78%
    22:00 +27°C° 0.4 mm 1 mps 735 mmHg 82%
    23:00 +26°C° 0.9 mm 1 mps 735 mmHg 86%

    Tomorrow, 18 November, Sunday

    Time Temperature Precipitation Wind Pressure Humidity
    00:00 +26°C° 0.9 mm 1 mps 734 mmHg 90%
    01:00 +25°C° 0.9 mm 1 mps 734 mmHg 94%
    02:00 +25°C° 0.3 mm 1 mps 734 mmHg 95%
    03:00 +25°C° 0.3 mm 1 mps 734 mmHg 96%
    04:00 +25°C° 0.3 mm 1 mps 733 mmHg 97%
    05:00 +25°C° 0.1 mm 1 mps 734 mmHg 96%
    06:00 +25°C° 0.1 mm 1 mps 734 mmHg 95%
    07:00 +23°C° 0.1 mm 0 mps 734 mmHg 95%
    08:00 +27°C° 0.9 mm 1 mps 735 mmHg 89%
    09:00 +28°C° 0.9 mm 1 mps 735 mmHg 84%
    10:00 +30°C° 0.9 mm 1 mps 735 mmHg 79%
    11:00 +31°C° 0.5 mm 1 mps 734 mmHg 72%
    12:00 +33°C° 0.5 mm 1 mps 733 mmHg 65%
    13:00 +34°C° 0.5 mm 1 mps 733 mmHg 58%
    14:00 +32°C° 0.6 mm 0 mps 732 mmHg 59%
    15:00 +31°C° 0.6 mm 0 mps 732 mmHg 59%
    16:00 +31°C° 0.6 mm 0 mps 731 mmHg 60%
    17:00 +31°C° 2.6 mm 1 mps 732 mmHg 71%
    18:00 +28°C° 2.6 mm 1 mps 732 mmHg 83%
    19:00 +26°C° 2.6 mm 1 mps 733 mmHg 94%
    20:00 +26°C° 0.9 mm 1 mps 734 mmHg 95%
    21:00 +25°C° 0.9 mm 1 mps 734 mmHg 95%
    22:00 +25°C° 0.9 mm 1 mps 735 mmHg 96%
    23:00 +25°C° 0.2 mm 1 mps 735 mmHg 96%

    Day after tomorrow, 19 November, Monday

    Time Temperature Precipitation Wind Pressure Humidity
    00:00 +25°C° 0.2 mm 1 mps 734 mmHg 96%
    01:00 +25°C° 0.2 mm 1 mps 734 mmHg 97%
    02:00 +24°C° 0 mm 1 mps 734 mmHg 97%
    03:00 +24°C° 0 mm 1 mps 733 mmHg 97%
    04:00 +22°C° 0 mm 0 mps 733 mmHg 97%
    05:00 +22°C° 0 mm 0 mps 733 mmHg 97%
    06:00 +25°C° 0 mm 1 mps 734 mmHg 96%
    07:00 +25°C° 0 mm 1 mps 734 mmHg 95%
    08:00 +27°C° 0.3 mm 1 mps 735 mmHg 87%
    09:00 +29°C° 0.3 mm 1 mps 735 mmHg 79%
    10:00 +31°C° 0.3 mm 1 mps 735 mmHg 70%
    11:00 +32°C° 0.5 mm 1 mps 734 mmHg 65%
    12:00 +33°C° 0.5 mm 1 mps 733 mmHg 60%
    13:00 +34°C° 0.5 mm 1 mps 733 mmHg 55%
    14:00 +34°C° 0.5 mm 1 mps 732 mmHg 58%
    15:00 +33°C° 0.5 mm 1 mps 731 mmHg 61%
    16:00 +33°C° 0.5 mm 1 mps 731 mmHg 63%
    17:00 +31°C° 0.8 mm 1 mps 731 mmHg 71%
    18:00 +27°C° 0.8 mm 0 mps 732 mmHg 78%
    19:00 +25°C° 0.8 mm 0 mps 733 mmHg 86%
    20:00 +25°C° 0.4 mm 0 mps 733 mmHg 88%
    21:00 +24°C° 0.4 mm 0 mps 734 mmHg 90%
    22:00 +24°C° 0.4 mm 0 mps 734 mmHg 93%
    23:00 +26°C° 0.1 mm 1 mps 734 mmHg 94%

    20 November, Tuesday

    Time Temperature Precipitation Wind Pressure Humidity
    00:00 +25°C° 0.1 mm 1 mps 733 mmHg 95%
    01:00 +25°C° 0.1 mm 1 mps 733 mmHg 96%
    02:00 +25°C° 0 mm 1 mps 733 mmHg 97%
    03:00 +25°C° 0 mm 1 mps 732 mmHg 98%
    04:00 +22°C° 0 mm 0 mps 732 mmHg 98%
    05:00 +23°C° 0.1 mm 0 mps 733 mmHg 97%
    06:00 +23°C° 0.1 mm 0 mps 734 mmHg 96%
    07:00 +23°C° 0.1 mm 0 mps 734 mmHg 95%
    08:00 +25°C° 0 mm 0 mps 735 mmHg 88%
    09:00 +26°C° 0 mm 0 mps 735 mmHg 81%
    10:00 +30°C° 0 mm 1 mps 735 mmHg 74%
    11:00 +31°C° 0.1 mm 1 mps 735 mmHg 67%
    12:00 +33°C° 0.1 mm 1 mps 734 mmHg 61%
    13:00 +34°C° 0.1 mm 1 mps 733 mmHg 55%
    14:00 +34°C° 0 mm 1 mps 732 mmHg 55%
    15:00 +32°C° 0 mm 0 mps 732 mmHg 54%
    16:00 +32°C° 0 mm 0 mps 731 mmHg 54%
    17:00 +30°C° 0.1 mm 0 mps 732 mmHg 63%
    18:00 +28°C° 0.1 mm 0 mps 732 mmHg 71%
    19:00 +26°C° 0.1 mm 0 mps 733 mmHg 80%
    20:00 +27°C° 0.4 mm 1 mps 733 mmHg 85%
    21:00 +26°C° 0.4 mm 1 mps 734 mmHg 89%
    22:00 +26°C° 0.4 mm 1 mps 734 mmHg 94%
    23:00 +26°C° 0.4 mm 1 mps 734 mmHg 95%

    21 November, Wednesday

    Time Temperature Precipitation Wind Pressure Humidity
    00:00 +25°C° 0.4 mm 1 mps 734 mmHg 95%
    01:00 +25°C° 0.4 mm 1 mps 733 mmHg 96%
    02:00 +25°C° 0.1 mm 1 mps 733 mmHg 96%
    03:00 +25°C° 0.1 mm 1 mps 733 mmHg 97%
    04:00 +24°C° 0.1 mm 1 mps 733 mmHg 97%
    05:00 +25°C° 0 mm 1 mps 733 mmHg 97%
    06:00 +25°C° 0 mm 1 mps 734 mmHg 96%
    07:00 +25°C° 0 mm 1 mps 734 mmHg 95%
    08:00 +26°C° 0.2 mm 1 mps 735 mmHg 90%
    09:00 +28°C° 0.2 mm 1 mps 735 mmHg 85%
    10:00 +29°C° 0.2 mm 1 mps 735 mmHg 80%
    11:00 +30°C° 0.5 mm 1 mps 734 mmHg 74%
    12:00 +32°C° 0.5 mm 1 mps 734 mmHg 68%
    13:00 +33°C° 0.5 mm 1 mps 733 mmHg 62%
    14:00 +33°C° 0.4 mm 1 mps 732 mmHg 63%
    15:00 +31°C° 0.4 mm 0 mps 732 mmHg 63%
    16:00 +31°C° 0.4 mm 0 mps 731 mmHg 64%
    17:00 +29°C° 0.5 mm 0 mps 732 mmHg 73%
    18:00 +26°C° 0.5 mm 0 mps 733 mmHg 82%
    19:00 +26°C° 0.5 mm 1 mps 733 mmHg 92%
    20:00 +26°C° 0.2 mm 1 mps 734 mmHg 93%
    21:00 +26°C° 0.2 mm 1 mps 734 mmHg 94%
    22:00 +25°C° 0.2 mm 1 mps 734 mmHg 96%
    23:00 +25°C° 0 mm 1 mps 734 mmHg 96%

    22 November, Thursday

    Time Temperature Precipitation Wind Pressure Humidity
    00:00 +25°C° 0 mm 1 mps 734 mmHg 97%
    01:00 +25°C° 0 mm 1 mps 733 mmHg 97%
    02:00 +25°C° 0 mm 1 mps 733 mmHg 98%
    03:00 +24°C° 0 mm 1 mps 733 mmHg 98%
    04:00 +24°C° 0 mm 1 mps 733 mmHg 98%
    05:00 +24°C° 0 mm 1 mps 733 mmHg 97%
    06:00 +25°C° 0 mm 1 mps 734 mmHg 96%
    07:00 +25°C° 0 mm 1 mps 734 mmHg 96%
    08:00 +26°C° 0 mm 1 mps 734 mmHg 89%
    09:00 +28°C° 0 mm 1 mps 735 mmHg 83%
    10:00 +29°C° 0 mm 1 mps 735 mmHg 76%
    11:00 +30°C° 0.2 mm 1 mps 734 mmHg 71%
    12:00 +31°C° 0.2 mm 1 mps 733 mmHg 67%
    13:00 +32°C° 0.2 mm 1 mps 732 mmHg 62%
    14:00 +32°C° 0.7 mm 1 mps 732 mmHg 65%
    15:00 +32°C° 0.7 mm 1 mps 732 mmHg 69%
    16:00 +31°C° 0.7 mm 1 mps 731 mmHg 72%
    17:00 +29°C° 1 mm 1 mps 732 mmHg 80%
    18:00 +27°C° 1 mm 1 mps 732 mmHg 87%
    19:00 +26°C° 1 mm 1 mps 733 mmHg 95%
    20:00 +25°C° 0.2 mm 1 mps 733 mmHg 96%
    21:00 +25°C° 0.2 mm 1 mps 734 mmHg 96%
    22:00 +25°C° 0.2 mm 1 mps 734 mmHg 97%
    23:00 +25°C° 0 mm 1 mps 734 mmHg 97%
    Show more